Weather History for KSNA - November, 2011

Change the Weather History Date:

Tuesday, November 29, 2011

  Actual Average Record
Temperature  
Mean Temperature 64 °F 58 °F  
Max Temperature 76 °F 68 °F 83 °F (2013)
Min Temperature 52 °F 49 °F 42 °F (2004)
Degree Days  
Heating Degree Days 1 7  
Month to date heating degree days 147 119  
Since 1 July heating degree days 168 146  
Cooling Degree Days 0 0  
Month to date cooling degree days 6 22  
Year to date cooling degree days 805 876  
Growing Degree Days 14 (Base 50)    
Moisture  
Dew Point 45 °F    
Average Humidity 52    
Maximum Humidity 72    
Minimum Humidity 31    
Precipitation  
Precipitation 0.00 in 0.03 in 0.25 in (2001)
Month to date precipitation 1.22 1.22  
Year to date precipitation 7.35 11.22  
Since 1 July precipitation 2.00 2.26  
Snow  
Snow 0.00 in - - ()
Month to date snowfall 0.0  
Year to date snowfall 0.0  
Since 1 July snowfall 0.0  
Snow Depth 0.00 in    
Sea Level Pressure  
Sea Level Pressure 30.04 in    
Wind  
Wind Speed 1 mph (SW)    
Max Wind Speed 9 mph    
Max Gust Speed 10 mph    
Visibility 10 miles    
Events      
T = Trace of Precipitation, MM = Missing Value Source: NWS Daily Summary

Daily Weather History Graph

Daily Weather History Graph

Search for Another Location

Airport or City:

Trip Planner

Search our weather history database for the weather conditions in past years. The results will help you decide how hot, cold, wet, or windy it might be!

Date:

Astronomy

Nov. 29, 2011 Rise Set
Actual Time 6:36 AM PST 4:43 PM PST
Civil Twilight 6:08 AM PST 5:10 PM PST
Nautical Twilight 5:38 AM PST 5:41 PM PST
Astronomical Twilight 5:08 AM PST 6:11 PM PST
Moon 10:30 AM PST (11/29) 9:35 PM PST (11/29)
Length of Visible Light 11h 01m
Length of Day
10h 07m
Waxing Crescent, 25% of the Moon is Illuminated
Nov 29
Waxing Crescent
Dec 2
First Quarter
Dec 10
Full
Dec 17
Last Quarter
Dec 24
New

Hourly Weather History & Observations

Time (PST) Temp. Dew Point Humidity Pressure Visibility Wind Dir Wind Speed Gust Speed Precip Events Conditions
12:53 AM 55.0 °F 44.1 °F 67% 30.06 in 10.0 mi Calm Calm - N/A   Clear
1:53 AM 54.0 °F 44.1 °F 69% 30.06 in 10.0 mi Calm Calm - N/A   Clear
2:53 AM 54.0 °F 41.0 °F 62% 30.05 in 10.0 mi Calm Calm - N/A   Clear
3:53 AM 53.1 °F 42.1 °F 66% 30.05 in 10.0 mi Calm Calm - N/A   Clear
4:53 AM 53.1 °F 42.1 °F 66% 30.05 in 10.0 mi Calm Calm - N/A   Clear
5:53 AM 52.0 °F 42.1 °F 69% 30.05 in 10.0 mi Calm Calm - N/A   Scattered Clouds
6:53 AM 54.0 °F 42.1 °F 64% 30.06 in 10.0 mi Calm Calm - N/A   Mostly Cloudy
7:53 AM 55.9 °F 43.0 °F 62% 30.07 in 10.0 mi Calm Calm - N/A   Overcast
8:53 AM 60.1 °F 39.9 °F 47% 30.07 in 10.0 mi Calm Calm - N/A   Overcast
9:53 AM 66.0 °F 39.0 °F 37% 30.08 in 10.0 mi West 3.5 mph - N/A   Mostly Cloudy
10:53 AM 69.1 °F 42.1 °F 38% 30.07 in 10.0 mi Calm Calm - N/A   Mostly Cloudy
12:53 PM 73.0 °F 42.1 °F 33% 30.02 in 10.0 mi Calm Calm - N/A   Mostly Cloudy
1:53 PM 75.0 °F 43.0 °F 32% 30.01 in 8.0 mi Calm Calm - N/A   Mostly Cloudy
2:53 PM 69.1 °F 46.9 °F 45% 30.00 in 8.0 mi SSW 8.1 mph - N/A   Mostly Cloudy
3:53 PM 66.9 °F 48.9 °F 52% 30.00 in 10.0 mi SW 4.6 mph - N/A   Mostly Cloudy
4:53 PM 64.9 °F 52.0 °F 63% 30.00 in 10.0 mi SSW 5.8 mph - N/A   Mostly Cloudy
5:53 PM 64.0 °F 52.0 °F 65% 30.01 in 10.0 mi Calm Calm - N/A   Scattered Clouds
6:53 PM 62.1 °F 52.0 °F 70% 30.02 in 10.0 mi Calm Calm - N/A   Scattered Clouds
7:53 PM 59.0 °F 51.8 °F 77% 30.03 in 9.0 mi Calm Calm - N/A   Clear
8:53 PM 57.9 °F 50.0 °F 75% 30.03 in 10.0 mi Calm Calm - N/A   Partly Cloudy
9:53 PM 55.0 °F 48.9 °F 80% 30.04 in 9.0 mi Calm Calm - N/A   Clear
10:53 PM 55.9 °F 45.0 °F 67% 30.04 in 10.0 mi Calm Calm - N/A   Clear
11:53 PM 53.6 °F 44.6 °F 72% 30.03 in 10.0 mi Calm Calm - N/A   Clear